Weather History for Lima, OH

Change the Weather History Date:

Sunday, March 10, 2013

  Actual Average (KFDY) Record (KFDY)
Temperature  
Mean Temperature 54 °F -  
Max Temperature 62 °F 44 °F 70 °F (1973)
Min Temperature 46 °F 25 °F 0 °F (1984)
Degree Days  
Heating Degree Days 11    
Growing Degree Days 4 (Base 50)    
Moisture  
Dew Point 37 °F    
Average Humidity 52    
Maximum Humidity 63    
Minimum Humidity 44    
Precipitation  
Precipitation 0.00 in - - ()
Sea Level Pressure  
Sea Level Pressure 29.93 in    
Wind  
Wind Speed 13 mph (SSE)    
Max Wind Speed 20 mph    
Max Gust Speed 30 mph    
Visibility 10 miles    
Events Rain    
Averages and records for this station are not official NWS values.
T = Trace of Precipitation, MM = Missing Value Source: NWS Daily Summary

Daily Weather History Graph

Daily Weather History Graph

Search for Another Location

Airport:

Trip Planner

Search our weather history database for the weather conditions in past years. The results will help you decide how hot, cold, wet, or windy it might be!

Date:

Astronomy

Mar. 10, 2013 Rise Set
Actual Time 7:55 AM EDT 7:37 PM EDT
Civil Twilight 7:28 AM EDT 8:05 PM EDT
Nautical Twilight 6:56 AM EDT 8:36 PM EDT
Astronomical Twilight 6:24 AM EDT 9:08 PM EDT
Moon 6:55 AM EDT (3/10) 6:44 PM EDT (3/10)
Length of Visible Light 12h 36m
Length of Day
11h 42m
Waning Crescent, 2% of the Moon is Illuminated
Mar 10
Waning Crescent
Mar 11
New
Mar 19
First Quarter
Mar 27
Full
Apr 3
Last Quarter

Hourly Weather History & Observations

Time (EDT) Temp. Windchill Dew Point Humidity Pressure Visibility Wind Dir Wind Speed Gust Speed Precip Events Conditions
12:53 AM 46.0 °F 40.6 °F 30.9 °F 56% 30.01 in 10.0 mi SSE 11.5 mph - N/A   Partly Cloudy
1:53 AM 46.0 °F 39.9 °F 33.1 °F 61% 30.00 in 10.0 mi SSE 13.8 mph - 0.00 in Rain Light Rain
3:53 AM 46.0 °F 40.2 °F 32.0 °F 58% 29.98 in 10.0 mi SSE 12.7 mph - N/A   Overcast
4:53 AM 46.9 °F - 32.0 °F 56% 29.98 in 10.0 mi South 9.2 mph - N/A   Overcast
5:53 AM 46.9 °F - 32.0 °F 56% 29.99 in 10.0 mi SSE 9.2 mph - N/A   Mostly Cloudy
6:53 AM 46.9 °F - 33.1 °F 59% 29.99 in 10.0 mi SE 10.4 mph - N/A   Clear
8:53 AM 46.9 °F - 35.1 °F 63% 30.01 in 10.0 mi SSE 10.4 mph - N/A   Mostly Cloudy
9:53 AM 50.0 °F - 36.0 °F 59% 30.01 in 10.0 mi South 11.5 mph - N/A   Clear
10:53 AM 53.1 °F - 36.0 °F 52% 29.99 in 10.0 mi South 13.8 mph - N/A   Partly Cloudy
11:53 AM 54.0 °F - 37.0 °F 53% 29.98 in 10.0 mi South 13.8 mph - N/A   Mostly Cloudy
12:53 PM 57.0 °F - 37.9 °F 49% 29.97 in 10.0 mi South 17.3 mph 23.0 mph N/A   Clear
1:53 PM 60.1 °F - 39.9 °F 47% 29.94 in 10.0 mi South 16.1 mph 24.2 mph N/A   Clear
2:53 PM 61.0 °F - 41.0 °F 48% 29.94 in 10.0 mi South 16.1 mph 23.0 mph N/A   Clear
3:53 PM 61.0 °F - 41.0 °F 48% 29.91 in 10.0 mi South 12.7 mph - N/A   Scattered Clouds
4:53 PM 62.1 °F - 42.1 °F 48% 29.88 in 10.0 mi SSE 16.1 mph - N/A   Clear
5:53 PM 62.1 °F - 39.9 °F 44% 29.90 in 10.0 mi South 12.7 mph - N/A   Clear
6:53 PM 59.0 °F - 39.0 °F 48% 29.86 in 10.0 mi SE 12.7 mph - N/A   Clear
7:53 PM 57.0 °F - 39.0 °F 51% 29.86 in 10.0 mi SSE 12.7 mph - N/A   Clear
8:53 PM 57.0 °F - 37.9 °F 49% 29.85 in 10.0 mi South 10.4 mph - N/A   Clear
10:53 PM 57.0 °F - 37.9 °F 49% 29.83 in 10.0 mi South 9.2 mph - N/A   Scattered Clouds
11:53 PM 59.0 °F - 37.0 °F 44% 29.82 in 10.0 mi South 13.8 mph - N/A   Overcast
12:53 AM 57.9 °F - 41.0 °F 53% 29.81 in 10.0 mi South 19.6 mph 29.9 mph 0.00 in Rain Light Rain